Richlands, VA

5:13 AM EDT on June 28, 2017 (GMT -0400)
Tazewell County

Weather History for KJFZ - June, 2013

Change the Weather History Date:

Friday, June 21, 2013

  Actual Average (KBLF) Record (KBLF)
Temperature  
Mean Temperature 70 °F -  
Max Temperature 78 °F 76 °F 89 °F (2011)
Min Temperature 61 °F 59 °F 43 °F (1992)
Cooling Degree Days 4    
Growing Degree Days 20 (Base 50)    
Moisture  
Dew Point 62 °F    
Average Humidity 74    
Maximum Humidity 93    
Minimum Humidity 54    
Precipitation  
Precipitation 0.00 in - - ()
Sea Level Pressure  
Sea Level Pressure 30.30 in    
Wind  
Wind Speed 3 mph (SE)    
Max Wind Speed 8 mph    
Max Gust Speed -    
Visibility 10 miles    
Events Thunderstorm    
Averages and records for this station are not official NWS values.
T = Trace of Precipitation, MM = Missing Value Source: NWS Daily Summary

Daily Weather History Graph

Daily Weather History Graph

Search for Another Location

Airport or City:

Trip Planner

Search our weather history database for the weather conditions in past years. The results will help you decide how hot, cold, wet, or windy it might be!

Date:

Astronomy

Jun. 21, 2013 Rise Set
Actual Time 6:07 AM EDT 8:50 PM EDT
Civil Twilight 5:36 AM EDT 9:21 PM EDT
Nautical Twilight 4:58 AM EDT 9:59 PM EDT
Astronomical Twilight 4:14 AM EDT 10:43 PM EDT
Moon 7:01 PM EDT (6/21) 4:19 AM EDT (6/21)
Length of Visible Light 15h 44m
Length of Day
14h 42m
Waxing Gibbous, 95% of the Moon is Illuminated
Jun 21
Waxing Gibbous
Jun 23
Full
Jun 30
Last Quarter
Jul 8
New
Jul 15
First Quarter

Hourly Weather History & Observations

Time (EDT) Temp. Dew Point Humidity Pressure Visibility Wind Dir Wind Speed Gust Speed Precip Events Conditions
12:15 AM 66.2 °F 61.3 °F 84% 30.29 in 10.0 mi SE 8.1 mph - N/A   Clear
12:35 AM 66.0 °F 61.0 °F 84% 30.29 in 10.0 mi SE 4.6 mph - N/A   Clear
12:55 AM 65.8 °F 61.0 °F 84% 30.29 in 10.0 mi SE 3.5 mph - N/A   Clear
1:15 AM 64.6 °F 60.8 °F 88% 30.29 in 10.0 mi SE 4.6 mph - N/A   Clear
1:35 AM 64.6 °F 60.8 °F 88% 30.29 in 10.0 mi SE 4.6 mph - N/A   Clear
1:55 AM 64.6 °F 60.6 °F 87% 30.29 in 10.0 mi SE 4.6 mph - N/A   Clear
2:15 AM 64.6 °F 60.4 °F 86% 30.29 in 10.0 mi SE 5.8 mph - N/A   Clear
2:35 AM 64.4 °F 60.4 °F 87% 30.29 in 10.0 mi SE 4.6 mph - N/A   Clear
2:55 AM 63.7 °F 60.3 °F 89% 30.29 in 10.0 mi SE 4.6 mph - N/A   Clear
3:15 AM 63.1 °F 60.1 °F 90% 30.29 in 10.0 mi SE 3.5 mph - N/A   Clear
3:35 AM 64.2 °F 59.4 °F 84% 30.29 in 10.0 mi Calm Calm - N/A   Clear
3:55 AM 63.3 °F 59.4 °F 87% 30.29 in 10.0 mi Calm Calm - N/A   Clear
4:15 AM 64.6 °F 59.0 °F 82% 30.29 in 10.0 mi Calm Calm - N/A   Clear
4:35 AM 64.6 °F 59.0 °F 82% 30.29 in 10.0 mi SSE 4.6 mph - N/A   Clear
4:55 AM 63.7 °F 59.0 °F 85% 30.29 in 10.0 mi Calm Calm - N/A   Clear
5:15 AM 63.5 °F 59.0 °F 85% 30.29 in 10.0 mi Calm Calm - N/A   Scattered Clouds
5:35 AM 64.4 °F 59.0 °F 83% 30.29 in 10.0 mi Calm Calm - N/A   Overcast
5:55 AM 61.7 °F 59.7 °F 93% 30.31 in 10.0 mi Calm Calm - N/A   Overcast
6:15 AM 63.5 °F 59.2 °F 86% 30.31 in 10.0 mi Calm Calm - N/A   Overcast
6:35 AM 62.6 °F 59.7 °F 90% 30.31 in 10.0 mi SSE 4.6 mph - N/A   Overcast
6:55 AM 62.2 °F 59.5 °F 91% 30.31 in 10.0 mi Calm Calm - N/A   Mostly Cloudy
7:15 AM 62.4 °F 59.7 °F 91% 30.31 in 10.0 mi SE 4.6 mph - N/A   Scattered Clouds
7:35 AM 62.1 °F 59.9 °F 93% 30.31 in 7.0 mi Calm Calm - N/A   Scattered Clouds
7:55 AM 64.6 °F 59.5 °F 84% 30.32 in 10.0 mi Calm Calm - N/A   Mostly Cloudy
8:15 AM 66.0 °F 60.8 °F 83% 30.32 in 10.0 mi Calm Calm - N/A   Scattered Clouds
8:35 AM 66.0 °F 61.3 °F 85% 30.33 in 10.0 mi Calm Calm - N/A   Mostly Cloudy
8:55 AM 68.5 °F 61.3 °F 78% 30.33 in 10.0 mi Calm Calm - N/A   Scattered Clouds
9:15 AM 69.3 °F 61.7 °F 77% 30.33 in 10.0 mi Calm Calm - N/A   Mostly Cloudy
9:35 AM 69.4 °F 61.0 °F 74% 30.33 in 10.0 mi Calm Calm - N/A   Scattered Clouds
9:55 AM 70.5 °F 62.1 °F 74% 30.33 in 10.0 mi Calm Calm - N/A   Scattered Clouds
10:15 AM 70.7 °F 62.8 °F 76% 30.33 in 10.0 mi Calm Calm - N/A   Mostly Cloudy
10:35 AM 70.9 °F 61.2 °F 71% 30.33 in 10.0 mi Calm Calm - N/A   Scattered Clouds
10:55 AM 72.0 °F 62.8 °F 73% 30.33 in 10.0 mi West 5.8 mph - N/A   Clear
11:15 AM 72.5 °F 63.5 °F 73% 30.33 in 10.0 mi Calm Calm - N/A   Clear
11:35 AM 71.8 °F 63.5 °F 75% 30.33 in 10.0 mi West 4.6 mph - N/A   Scattered Clouds
11:55 AM 72.1 °F 62.8 °F 72% 30.33 in 10.0 mi Calm Calm - N/A   Mostly Cloudy
12:15 PM 72.5 °F 63.3 °F 73% 30.33 in 10.0 mi Calm Calm - N/A   Mostly Cloudy
12:35 PM 73.8 °F 63.1 °F 69% 30.33 in 10.0 mi SW 6.9 mph - N/A   Scattered Clouds
12:55 PM 74.1 °F 63.5 °F 69% 30.34 in 10.0 mi Calm Calm - N/A   Mostly Cloudy
1:15 PM 74.1 °F 62.8 °F 68% 30.33 in 10.0 mi Calm Calm - N/A   Mostly Cloudy
1:35 PM 75.9 °F 62.6 °F 63% 30.33 in 10.0 mi SSW 4.6 mph - N/A   Mostly Cloudy
1:55 PM 75.4 °F 63.3 °F 66% 30.33 in 10.0 mi South 3.5 mph - N/A   Mostly Cloudy
2:15 PM 77.9 °F 64.0 °F 62% 30.33 in 10.0 mi Calm Calm - N/A   Scattered Clouds
2:35 PM 78.4 °F 62.6 °F 58% 30.32 in 10.0 mi Calm Calm - N/A   Scattered Clouds
2:55 PM 78.1 °F 63.3 °F 60% 30.32 in 10.0 mi Calm Calm - N/A   Scattered Clouds
3:15 PM 78.3 °F 61.7 °F 57% 30.31 in 10.0 mi Calm Calm - N/A   Mostly Cloudy
3:35 PM 77.4 °F 63.1 °F 61% 30.31 in 10.0 mi South 3.5 mph - N/A   Overcast
3:55 PM 77.2 °F 63.0 °F 61% 30.31 in 10.0 mi Calm Calm - N/A Thunderstorm Overcast
4:15 PM 78.1 °F 64.9 °F 64% 30.30 in 10.0 mi North 4.6 mph - N/A   Mostly Cloudy
4:35 PM 76.5 °F 63.0 °F 63% 30.29 in 10.0 mi North 3.5 mph - N/A Thunderstorm Mostly Cloudy
4:55 PM 75.4 °F 64.0 °F 68% 30.29 in 10.0 mi NNW 6.9 mph - N/A   Mostly Cloudy
5:15 PM 76.3 °F 63.5 °F 64% 30.29 in 10.0 mi NNW 5.8 mph - N/A   Scattered Clouds
5:35 PM 75.0 °F 63.5 °F 67% 30.28 in 10.0 mi NNW 6.9 mph - N/A   Mostly Cloudy
5:55 PM 73.9 °F 64.2 °F 72% 30.28 in 10.0 mi Calm Calm - N/A   Mostly Cloudy
6:15 PM 77.0 °F 59.7 °F 55% 30.27 in 10.0 mi Calm Calm - N/A   Scattered Clouds
6:35 PM 77.9 °F 60.3 °F 54% 30.26 in 10.0 mi NE 4.6 mph - N/A   Clear
6:55 PM 77.2 °F 65.7 °F 67% 30.26 in 10.0 mi Calm Calm - N/A   Clear
7:15 PM 77.2 °F 62.1 °F 59% 30.26 in 10.0 mi NNE 3.5 mph - N/A   Clear
7:35 PM 75.4 °F 64.4 °F 69% 30.26 in 10.0 mi NNE 4.6 mph - N/A   Clear
7:55 PM 75.2 °F 65.8 °F 73% 30.26 in 10.0 mi Calm Calm - N/A   Clear
8:15 PM 75.9 °F 63.0 °F 64% 30.26 in 10.0 mi Calm Calm - N/A   Clear
8:35 PM 74.8 °F 64.2 °F 69% 30.26 in 10.0 mi Calm Calm - N/A   Clear
8:55 PM 74.3 °F 61.7 °F 65% 30.26 in 10.0 mi Calm Calm - N/A   Clear
9:15 PM 73.9 °F 59.4 °F 60% 30.26 in 10.0 mi Calm Calm - N/A   Clear
9:35 PM 72.9 °F 59.5 °F 63% 30.27 in 10.0 mi Calm Calm - N/A   Clear
9:55 PM 71.4 °F 60.3 °F 68% 30.28 in 10.0 mi East 3.5 mph - N/A   Scattered Clouds
10:15 PM 71.8 °F 60.4 °F 67% 30.29 in 10.0 mi Calm Calm - N/A   Scattered Clouds
10:35 PM 71.4 °F 59.9 °F 67% 30.29 in 10.0 mi SSE 3.5 mph - N/A   Clear
10:55 PM 68.7 °F 60.4 °F 75% 30.30 in 10.0 mi SE 5.8 mph - N/A   Clear
11:15 PM 68.9 °F 60.1 °F 73% 30.31 in 10.0 mi SE 5.8 mph - N/A   Clear
11:35 PM 68.2 °F 60.3 °F 76% 30.31 in 10.0 mi SE 5.8 mph - N/A   Clear
11:55 PM 68.2 °F 60.3 °F 76% 30.31 in 10.0 mi SE 4.6 mph - N/A   Clear